GW6957 Weather Reports


time (UTC)temp
C
wind
direction
speed
KPH
gust
KPH
rain 1hr
cm
rain 24hr
cm
rain mn
cm
humidity
%
barometer
mb
20260508190918 21 317 9.7 12.9 0.00 0.00 0.00 29 1014.2
20260508190417 22 32 4.8 6.4 0.00 0.00 0.00 28 1014.2
20260508185917 23 198 1.6 1.6 0.00 0.00 0.00 31 1014.2
20260508185418 23 130 3.2 8.0 0.00 0.00 0.00 29 1014.2
20260508184917 21 146 4.8 9.7 0.00 0.00 0.00 30 1014.2
20260508184418 22 67 3.2 4.8 0.00 0.00 0.00 28 1014.2
20260508183920 22 132 4.8 4.8 0.00 0.00 0.00 29 1014.2
20260508183418 22 196 6.4 8.0 0.00 0.00 0.00 29 1014.6
20260508182918 22 241 4.8 4.8 0.00 0.00 0.00 32 1014.6
20260508182417 21 82 6.4 6.4 0.00 0.00 0.00 31 1014.6
20260508181919 21 161 3.2 4.8 0.00 0.00 0.00 31 1014.6
20260508181418 21 156 12.9 22.5 0.00 0.00 0.00 30 1014.6
20260508180918 22 120 8.0 11.3 0.00 0.00 0.00 30 1014.9
20260508180418 23 157 1.6 1.6 0.00 0.00 0.00 30 1014.9
20260508175918 23 96 1.6 1.6 0.00 0.00 0.00 29 1014.9
20260508175418 21 248 4.8 6.4 0.00 0.00 0.00 30 1014.9
20260508174917 23 274 3.2 4.8 0.00 0.00 0.00 28 1015.2
20260508174418 23 115 0.0 3.2 0.00 0.00 0.00 31 1015.2
20260508173918 22 248 1.6 4.8 0.00 0.00 0.00 33 1015.2
20260508173417 21 262 3.2 9.7 0.00 0.00 0.00 34 1015.2
20260508172917 20 142 6.4 9.7 0.00 0.00 0.00 33 1015.2
20260508172418 20 147 11.3 11.3 0.00 0.00 0.00 34 1015.2
20260508171918 21 155 14.5 14.5 0.00 0.00 0.00 31 1015.2
20260508171418 21 76 6.4 8.0 0.00 0.00 0.00 33 1015.2
20260508170918 21 129 6.4 8.0 0.00 0.00 0.00 35 1015.9
20260508170418 21 253 8.0 12.9 0.00 0.00 0.00 33 1015.9
20260508165920 21 163 6.4 11.3 0.00 0.00 0.00 35 1016.3
20260508165417 20 108 8.0 11.3 0.00 0.00 0.00 35 1016.3
20260508164917 20 61 4.8 4.8 0.00 0.00 0.00 35 1016.6
20260508164418 20 177 12.9 12.9 0.00 0.00 0.00 36 1016.6
20260508163918 20 185 6.4 6.4 0.00 0.00 0.00 36 1016.6
20260508163423 20 223 6.4 11.3 0.00 0.00 0.00 37 1016.6
20260508162917 20 109 3.2 3.2 0.00 0.00 0.00 37 1016.6
20260508162418 19 146 12.9 16.1 0.00 0.00 0.00 39 1016.9
20260508161920 20 244 3.2 8.0 0.00 0.00 0.00 38 1016.9
20260508161418 19 113 6.4 14.5 0.00 0.00 0.00 40 1016.9
20260508160917 20 223 8.0 12.9 0.00 0.00 0.00 38 1016.9
20260508160418 20 172 4.8 4.8 0.00 0.00 0.00 39 1016.9
20260508155919 20 213 1.6 1.6 0.00 0.00 0.00 38 1017.3
20260508155421 19 138 8.0 11.3 0.00 0.00 0.00 41 1017.3
20260508154918 18 108 8.0 12.9 0.00 0.00 0.00 39 1017.3
20260508154417 18 87 3.2 3.2 0.00 0.00 0.00 38 1017.3
20260508153918 18 90 1.6 3.2 0.00 0.00 0.00 39 1017.3
20260508153417 18 157 3.2 3.2 0.00 0.00 0.00 39 1017.3
20260508152917 18 174 3.2 3.2 0.00 0.00 0.00 38 1017.3
20260508152418 18 198 8.0 8.0 0.00 0.00 0.00 40 1017.3
20260508151917 18 204 4.8 4.8 0.00 0.00 0.00 45 1017.3
20260508151417 17 122 8.0 9.7 0.00 0.00 0.00 43 1017.3
20260508150917 17 146 3.2 4.8 0.00 0.00 0.00 44 1017.3
20260508150419 16 111 6.4 9.7 0.00 0.00 0.00 44 1017.3
20260508145917 16 117 8.0 8.0 0.00 0.00 0.00 43 1017.3
20260508145418 16 120 11.3 11.3 0.00 0.00 0.00 43 1017.3
20260508144918 16 169 4.8 4.8 0.03 0.00 0.00 48 1017.3
20260508144419 16 203 4.8 8.0 0.03 0.00 0.00 48 1017.3
20260508143918 16 154 1.6 3.2 0.03 0.00 0.00 47 1017.3
20260508143418 16 208 1.6 4.8 0.03 0.00 0.00 50 1016.9
20260508142917 16 120 4.8 4.8 0.03 0.00 0.00 49 1016.9
20260508142420 15 169 3.2 3.2 0.03 0.00 0.00 52 1017.3
20260508141918 15 270 4.8 6.4 0.03 0.00 0.00 49 1017.3
20260508141417 14 118 3.2 4.8 0.03 0.00 0.00 52 1017.3
20260508140919 13 122 3.2 3.2 0.03 0.00 0.00 55 1017.3
20260508140418 13 121 3.2 3.2 0.03 0.00 0.00 57 1017.3
20260508135917 12 164 3.2 3.2 0.03 0.00 0.00 62 1017.3
20260508135417 12 130 3.2 3.2 0.03 0.00 0.00 67 1017.3
20260508134917 11 173 1.6 1.6 0.00 0.00 0.00 68 1017.3
20260508134418 11 92 3.2 4.8 0.00 0.00 0.00 69 1017.3
20260508133922 9 185 1.6 1.6 0.00 0.00 0.00 78 1017.3
20260508133419 8 177 1.6 1.6 0.00 0.00 0.00 85 1017.3
20260508132917 7 203 0.0 1.6 0.00 0.00 0.00 99 1017.3
20260508132418 7 270 1.6 1.6 0.00 0.00 0.00 99 1017.3
20260508131917 6 286 0.0 0.0 0.00 0.00 0.00 99 1017.3
20260508131418 6 246 1.6 1.6 0.00 0.00 0.00 99 1017.3
20260508130917 6 212 0.0 1.6 0.00 0.00 0.00 99 1017.3
20260508130418 5 263 0.0 0.0 0.00 0.00 0.00 99 1017.3
20260508125917 5 255 0.0 0.0 0.00 0.00 0.00 99 1017.3
20260508125418 5 235 0.0 0.0 0.00 0.00 0.00 99 1017.3
20260508124918 4 256 1.6 1.6 0.00 0.00 0.00 99 1017.3
20260508124417 3 258 0.0 0.0 0.00 0.00 0.00 99 1017.3
20260508123918 3 270 1.6 1.6 0.00 0.00 0.00 99 1017.3
20260508123417 3 248 0.0 0.0 0.00 0.00 0.00 99 1017.3
20260508122917 2 270 1.6 1.6 0.00 0.00 0.00 99 1017.3
20260508122418 2 261 1.6 1.6 0.00 0.00 0.00 99 1017.3
20260508121918 2 238 0.0 0.0 0.00 0.00 0.00 99 1017.3
20260508121418 2 230 0.0 1.6 0.00 0.00 0.00 99 1017.3
20260508120917 2 240 0.0 0.0 0.00 0.00 0.00 99 1017.3
20260508120417 1 209 0.0 0.0 0.00 0.00 0.00 99 1017.3
20260508115918 1 224 0.0 0.0 0.00 0.00 0.00 99 1017.3
20260508115418 1 218 0.0 0.0 0.00 0.00 0.00 99 1017.3
20260508114918 1 216 0.0 0.0 0.00 0.00 0.00 99 1017.3
20260508114417 1 221 0.0 0.0 0.00 0.00 0.00 99 1017.3
20260508113920 1 223 0.0 0.0 0.00 0.00 0.00 99 1017.3
20260508113417 1 221 0.0 0.0 0.00 0.00 0.00 99 1017.3
20260508112917 1 220 0.0 0.0 0.00 0.00 0.00 99 1017.3
20260508112419 0 219 0.0 0.0 0.00 0.00 0.00 99 1016.9
20260508111918 0 220 0.0 0.0 0.00 0.00 0.00 99 1016.9
20260508111417 0 218 0.0 0.0 0.00 0.00 0.00 99 1016.9
20260508110918 0 222 0.0 0.0 0.00 0.00 0.00 99 1016.9
20260508110417 0 212 0.0 0.0 0.00 0.00 0.00 99 1016.9
20260508105918 0 226 0.0 0.0 0.00 0.00 0.00 99 1016.9
20260508105417 0 212 0.0 0.0 0.00 0.00 0.00 99 1016.9
20260508104917 0 217 0.0 0.0 0.00 0.00 0.00 99 1016.9
20260508104418 0 219 0.0 0.0 0.00 0.00 0.00 99 1016.9
20260508103917 0 210 0.0 0.0 0.00 0.00 0.00 99 1016.9
20260508103417 0 217 0.0 0.0 0.00 0.00 0.00 99 1016.9
20260508102917 0 218 0.0 0.0 0.00 0.00 0.00 99 1016.9
20260508102417 0 217 0.0 0.0 0.00 0.00 0.00 99 1016.6
20260508101919 0 217 0.0 0.0 0.00 0.00 0.00 99 1016.6
20260508101417 0 218 0.0 0.0 0.00 0.00 0.00 99 1016.6
20260508100919 0 223 0.0 0.0 0.00 0.00 0.00 99 1016.6
20260508100417 0 217 0.0 0.0 0.00 0.00 0.00 99 1016.6
20260508095917 0 221 0.0 0.0 0.00 0.00 0.00 99 1016.6
20260508095419 0 223 0.0 0.0 0.00 0.00 0.00 99 1016.6
20260508094919 0 223 0.0 0.0 0.00 0.00 0.00 99 1016.9
20260508094417 0 224 0.0 0.0 0.00 0.00 0.00 99 1016.9
20260508093918 0 224 0.0 0.0 0.00 0.00 0.00 99 1016.9
20260508093417 0 223 0.0 0.0 0.00 0.00 0.00 99 1016.6
20260508092918 0 224 0.0 0.0 0.00 0.00 0.00 99 1016.6
20260508092417 0 224 0.0 0.0 0.00 0.00 0.00 99 1016.6
20260508091918 0 224 0.0 0.0 0.00 0.00 0.00 99 1016.6
20260508091417 0 224 0.0 0.0 0.00 0.00 0.00 99 1016.6
20260508090919 0 224 0.0 0.0 0.00 0.00 0.00 99 1016.6
20260508090418 0 224 0.0 0.0 0.00 0.00 0.00 99 1016.6
20260508085918 0 224 0.0 0.0 0.00 0.00 0.00 99 1016.6
20260508085417 0 225 0.0 0.0 0.00 0.00 0.00 99 1016.6
20260508084917 0 225 0.0 0.0 0.00 0.00 0.00 99 1016.6
20260508084417 0 226 0.0 0.0 0.00 0.00 0.00 99 1016.6
20260508083918 0 218 0.0 0.0 0.00 0.00 0.00 99 1016.6
20260508083417 0 217 0.0 0.0 0.00 0.00 0.00 99 1016.6
20260508082917 0 218 0.0 0.0 0.00 0.00 0.00 99 1016.6
20260508082418 0 219 0.0 0.0 0.00 0.00 0.00 99 1016.6
20260508081918 0 216 0.0 0.0 0.00 0.00 0.00 99 1016.6
20260508081417 0 217 0.0 0.0 0.00 0.00 0.00 99 1016.6
20260508080918 1 220 0.0 0.0 0.00 0.00 0.00 99 1016.6
20260508080417 0 212 0.0 0.0 0.00 0.00 0.00 99 1016.6
20260508075917 1 218 0.0 0.0 0.00 0.00 0.00 99 1016.6
20260508075419 1 220 0.0 0.0 0.00 0.00 0.00 99 1016.6
20260508074918 1 211 0.0 0.0 0.00 0.00 0.00 99 1016.6
20260508074418 1 204 0.0 0.0 0.00 0.00 0.00 99 1016.6
20260508073918 1 217 0.0 0.0 0.00 0.00 0.00 99 1016.6
20260508073418 1 224 0.0 0.0 0.00 0.00 0.00 99 1016.6
20260508072918 0 220 0.0 0.0 0.00 0.00 0.00 99 1016.6
20260508072417 1 210 0.0 0.0 0.00 0.00 0.00 99 1016.6
20260508071917 1 218 0.0 0.0 0.00 0.00 0.00 99 1016.6
20260508071418 1 219 0.0 0.0 0.00 0.00 0.00 99 1016.6
20260508070917 1 218 0.0 0.0 0.00 0.00 0.00 99 1016.6
20260508070418 1 218 0.0 0.0 0.00 0.00 0.00 99 1016.6
20260508065917 1 218 0.0 0.0 0.00 0.00 0.00 99 1016.6
20260508065418 1 218 0.0 0.0 0.00 0.00 0.00 99 1016.6
20260508064917 1 220 0.0 0.0 0.00 0.00 0.00 99 1016.6
20260508064418 1 219 0.0 0.0 0.00 0.00 0.00 99 1016.6
20260508063917 1 220 0.0 0.0 0.00 0.00 0.00 99 1016.6
20260508063418 1 218 0.0 0.0 0.00 0.00 0.00 99 1016.6
20260508062917 1 219 0.0 0.0 0.00 0.00 0.00 99 1016.6
20260508062422 1 220 0.0 0.0 0.00 0.00 0.00 99 1016.6
20260508061917 1 218 0.0 0.0 0.00 0.00 0.00 99 1016.6
20260508061417 1 212 0.0 0.0 0.00 0.00 0.00 99 1016.6
20260508060918 1 222 0.0 0.0 0.00 0.00 0.00 99 1016.6
20260508060418 1 218 0.0 0.0 0.00 0.00 0.00 99 1016.6
20260508055917 1 227 0.0 0.0 0.00 0.00 0.00 99 1016.6
20260508055418 1 209 0.0 0.0 0.00 0.00 0.00 99 1016.6
20260508054918 1 217 0.0 0.0 0.00 0.00 0.00 99 1016.6
20260508054417 2 214 0.0 0.0 0.00 0.00 0.00 99 1016.9
20260508053917 2 214 0.0 0.0 0.00 0.00 0.00 99 1016.9
20260508053417 2 214 0.0 0.0 0.00 0.00 0.00 99 1016.6
20260508052918 2 214 0.0 0.0 0.00 0.00 0.00 99 1016.6
20260508052418 2 211 0.0 0.0 0.00 0.00 0.00 99 1016.6
20260508051917 2 210 0.0 0.0 0.00 0.00 0.00 99 1016.6
20260508051419 2 214 0.0 0.0 0.00 0.00 0.00 99 1016.6
20260508050917 2 214 0.0 0.0 0.00 0.00 0.00 99 1016.6
20260508050417 2 214 0.0 0.0 0.00 0.00 0.00 99 1016.6
20260508045918 2 214 0.0 0.0 0.00 0.00 0.00 99 1016.6
20260508045417 2 214 0.0 0.0 0.00 0.00 0.00 99 1016.6
20260508044917 2 214 0.0 0.0 0.00 0.00 0.00 99 1016.6
20260508044418 2 214 0.0 0.0 0.00 0.00 0.00 99 1016.3
20260508043918 2 211 0.0 0.0 0.00 0.00 0.00 99 1016.3
20260508043418 2 205 0.0 0.0 0.00 0.00 0.00 99 1016.3
20260508042917 2 220 0.0 0.0 0.00 0.00 0.00 99 1016.3
20260508042417 2 226 0.0 0.0 0.00 0.00 0.00 99 1016.6
20260508041917 2 220 0.0 0.0 0.00 0.00 0.00 99 1016.6
20260508041419 2 220 0.0 0.0 0.00 0.00 0.00 99 1016.6
20260508040918 2 220 0.0 0.0 0.00 0.00 0.00 99 1016.3
20260508040418 2 220 0.0 0.0 0.00 0.00 0.00 99 1016.3
20260508035917 2 220 0.0 0.0 0.00 0.00 0.00 99 1016.6
20260508035417 2 220 0.0 0.0 0.00 0.00 0.00 99 1016.6
20260508034917 3 221 0.0 0.0 0.00 0.00 0.00 99 1016.6
20260508034418 3 221 0.0 0.0 0.00 0.00 0.00 99 1016.3
20260508033919 3 221 0.0 0.0 0.00 0.00 0.00 99 1016.3
20260508033417 3 220 0.0 0.0 0.00 0.00 0.00 99 1016.3
20260508032917 3 221 0.0 0.0 0.00 0.00 0.00 99 1016.3
20260508032418 3 221 0.0 0.0 0.00 0.00 0.00 99 1016.3
20260508031918 3 215 0.0 0.0 0.00 0.00 0.00 98 1016.3
20260508031419 3 215 0.0 0.0 0.00 0.00 0.00 98 1016.3
20260508030917 3 215 0.0 0.0 0.00 0.00 0.00 98 1016.3
20260508030418 3 215 0.0 0.0 0.00 0.00 0.00 98 1016.3
20260508025917 3 215 0.0 0.0 0.00 0.00 0.00 98 1016.3
20260508025418 3 213 0.0 0.0 0.00 0.00 0.00 97 1016.3
20260508024917 3 221 0.0 0.0 0.00 0.00 0.00 97 1016.3
20260508024417 4 224 0.0 0.0 0.00 0.00 0.00 97 1015.9
20260508023918 4 215 0.0 0.0 0.00 0.00 0.00 97 1015.9
20260508023417 4 214 0.0 0.0 0.00 0.00 0.00 96 1015.9
20260508022918 4 220 0.0 0.0 0.00 0.00 0.00 96 1015.9
20260508022417 4 221 0.0 0.0 0.00 0.00 0.00 96 1015.2
20260508021917 4 220 0.0 0.0 0.00 0.00 0.00 95 1015.2
20260508021417 5 220 0.0 0.0 0.00 0.00 0.00 95 1015.2
20260508020917 5 220 0.0 0.0 0.00 0.00 0.00 94 1015.2
20260508020418 5 220 0.0 0.0 0.00 0.00 0.00 94 1015.2
20260508015917 5 213 0.0 0.0 0.00 0.00 0.00 92 1014.9
20260508015418 5 219 0.0 0.0 0.00 0.00 0.00 93 1014.9
20260508014917 5 205 0.0 0.0 0.00 0.00 0.00 93 1014.9
20260508014418 5 219 0.0 0.0 0.00 0.00 0.00 92 1014.9
20260508013918 5 219 0.0 0.0 0.00 0.00 0.00 91 1014.9
20260508013418 5 216 0.0 0.0 0.00 0.00 0.00 90 1014.6
20260508012918 6 218 0.0 0.0 0.00 0.00 0.00 89 1014.6
20260508012419 6 217 0.0 0.0 0.00 0.00 0.00 89 1014.6
20260508011917 6 216 0.0 0.0 0.00 0.00 0.00 88 1014.6
20260508011418 6 216 0.0 0.0 0.00 0.00 0.00 86 1014.6
20260508010917 6 222 0.0 0.0 0.00 0.00 0.00 85 1014.6
20260508010417 6 215 0.0 0.0 0.00 0.00 0.00 84 1014.6
20260508005919 7 229 0.0 0.0 0.00 0.00 0.00 82 1014.2
20260508005418 7 211 0.0 0.0 0.00 0.00 0.00 81 1014.2
20260508004918 7 211 0.0 0.0 0.00 0.00 0.00 80 1014.2
20260508004418 7 208 0.0 0.0 0.00 0.00 0.00 78 1014.2
20260508003918 8 216 0.0 0.0 0.00 0.00 0.00 78 1014.2
20260508003417 8 205 0.0 0.0 0.00 0.00 0.00 75 1014.2
20260508002921 8 215 0.0 0.0 0.00 0.00 0.00 75 1014.2
20260508002418 9 213 0.0 0.0 0.00 0.00 0.00 74 1014.2
20260508001917 9 218 0.0 0.0 0.00 0.00 0.00 73 1014.2
20260508001417 9 218 0.0 0.0 0.00 0.00 0.00 70 1014.2
20260508000918 10 213 0.0 0.0 0.00 0.00 0.00 71 1014.2
20260508000419 10 180 0.0 0.0 0.00 0.00 0.00 69 1014.2
20260507235918 10 223 0.0 1.6 0.00 0.00 0.00 66 1014.2
20260507235417 11 218 0.0 0.0 0.00 0.00 0.00 67 1014.2
20260507234917 11 218 0.0 0.0 0.00 0.00 0.00 65 1014.2
20260507234417 12 270 1.6 1.6 0.00 0.00 0.00 58 1014.2
20260507233917 12 248 1.6 1.6 0.00 0.00 0.00 55 1014.2
20260507233417 12 304 1.6 1.6 0.00 0.00 0.00 55 1013.9
20260507232917 12 234 0.0 0.0 0.00 0.00 0.00 55 1013.9
20260507232418 12 115 0.0 1.6 0.00 0.00 0.00 53 1013.5
20260507231917 13 96 0.0 1.6 0.00 0.00 0.00 54 1013.5
20260507231418 13 308 3.2 3.2 0.00 0.00 0.00 52 1013.5
20260507230918 13 342 1.6 1.6 0.00 0.00 0.00 49 1013.9
20260507230417 13 310 1.6 1.6 0.00 0.00 0.00 51 1013.9
20260507225918 15 111 1.6 1.6 0.00 0.00 0.00 41 1013.9
20260507225418 15 277 3.2 3.2 0.00 0.00 0.00 44 1013.9
20260507224917 15 182 0.0 0.0 0.00 0.00 0.00 46 1014.2
20260507224417 15 211 1.6 1.6 0.00 0.00 0.00 42 1014.2
20260507223918 16 203 1.6 3.2 0.00 0.00 0.00 40 1014.2
20260507223418 16 128 1.6 3.2 0.00 0.00 0.00 41 1013.9
20260507222919 16 2 8.0 8.0 0.00 0.00 0.00 42 1013.9
20260507222418 16 152 1.6 8.0 0.00 0.00 0.00 40 1013.9
20260507221917 16 78 3.2 3.2 0.00 0.00 0.00 45 1013.9
20260507221417 16 338 6.4 6.4 0.00 0.00 0.00 39 1013.9
20260507220918 17 216 0.0 3.2 0.00 0.00 0.00 40 1013.5
20260507220417 17 210 1.6 1.6 0.00 0.00 0.00 38 1013.5
20260507215917 17 163 4.8 8.0 0.00 0.00 0.00 38 1013.5
20260507215417 17 296 3.2 4.8 0.00 0.00 0.00 39 1013.5
20260507214917 17 358 4.8 8.0 0.00 0.00 0.00 36 1013.5
20260507214417 18 157 3.2 4.8 0.00 0.00 0.00 36 1013.5
20260507213917 20 3 3.2 4.8 0.00 0.00 0.00 35 1013.5
20260507213418 21 124 0.0 0.0 0.00 0.00 0.00 32 1013.2
20260507212919 21 106 3.2 9.7 0.00 0.00 0.00 35 1013.2
20260507212417 20 263 0.0 0.0 0.00 0.00 0.00 38 1013.2
20260507211917 20 137 6.4 16.1 0.00 0.00 0.00 33 1013.2
20260507211419 22 221 1.6 1.6 0.00 0.00 0.00 32 1013.2
20260507210918 21 244 0.0 1.6 0.00 0.00 0.00 38 1013.2
20260507210422 21 194 3.2 9.7 0.00 0.00 0.00 34 1013.2
20260507205917 21 172 3.2 4.8 0.00 0.00 0.00 35 1013.2
20260507205419 19 146 9.7 11.3 0.00 0.00 0.00 39 1013.2
20260507204918 19 75 9.7 9.7 0.00 0.00 0.00 35 1013.2
20260507204418 20 149 4.8 4.8 0.00 0.00 0.00 39 1013.2
20260507203917 20 83 1.6 3.2 0.00 0.00 0.00 37 1013.2
20260507203418 20 187 6.4 9.7 0.00 0.00 0.00 40 1013.2
20260507202918 19 344 1.6 3.2 0.00 0.00 0.00 40 1013.2
20260507202417 18 167 4.8 8.0 0.00 0.00 0.00 38 1013.2
20260507201918 21 79 6.4 9.7 0.00 0.00 0.00 39 1013.2
20260507201417 20 168 4.8 11.3 0.00 0.00 0.00 39 1013.2
20260507200917 21 169 1.6 4.8 0.00 0.00 0.00 34 1013.2
20260507200418 20 194 3.2 9.7 0.00 0.00 0.00 42 1013.2
20260507195919 21 54 3.2 3.2 0.00 0.00 0.00 36 1013.2
20260507195418 21 232 8.0 11.3 0.00 0.00 0.00 34 1013.2
20260507194917 22 216 3.2 6.4 0.00 0.00 0.00 35 1013.5
20260507194418 21 254 1.6 4.8 0.00 0.00 0.00 36 1013.5
20260507193918 19 217 1.6 3.2 0.00 0.00 0.00 42 1013.5
20260507193418 21 230 1.6 4.8 0.00 0.00 0.00 35 1013.2
20260507192917 20 83 6.4 8.0 0.00 0.00 0.00 37 1013.2
20260507192417 22 208 1.6 4.8 0.00 0.00 0.00 34 1013.2
20260507191918 21 185 3.2 9.7 0.00 0.00 0.00 38 1013.2
20260507191417 19 309 3.2 4.8 0.00 0.00 0.00 38 1013.2